User: anonymous
Location: Unspecified
(42.1900°N, 71.3291°W)
Time: 13:30:54
(UTC-04:00)
Language:

Resurs 1-4 Rocket - Orbit

View from above orbital plane
View from above orbital plane
View from above satellite
View from above satellite

Ground track
Ground track

The orbit data is extracted from the following two-line orbital elements,

1 25400U 98043G   14244.51780433  .00000002  00000-0  18365-4 0  7370
2 25400 098.3422 217.7333 0010579 050.0287 310.1821 14.25254646839815
Epoch (UTC): 01 September 2014 12:25:38
Eccentricity: 0.0010579
inclination: 98.3422°
perigee height: 800 km
apogee height: 815 km
right ascension of ascending node: 217.7333°
argument of perigee: 50.0287°
revolutions per day: 14.25254646
mean anomaly at epoch: 310.1821°
orbit number at epoch: 83981

The dashed part of the orbit path shows where the satellite is in the earth's shadow,  

DLR